Weather History for KSNY - February, 2013

Change the Weather History Date:

Tuesday, February 5, 2013

  Actual Average Record
Temperature  
Mean Temperature 41 °F 30 °F  
Max Temperature 53 °F 43 °F 66 °F (1963)
Min Temperature 28 °F 17 °F -27 °F (1982)
Degree Days  
Heating Degree Days 24 35  
Month to date heating degree days 147 175  
Since 1 July heating degree days 3850 3832  
Cooling Degree Days 0 0  
Month to date cooling degree days 0 0  
Year to date cooling degree days 0 0  
Moisture  
Dew Point 20 °F    
Average Humidity 44    
Maximum Humidity 59    
Minimum Humidity 28    
Precipitation  
Precipitation 0.00 in 0.01 in 0.26 in (1986)
Month to date precipitation 0.01 0.05  
Year to date precipitation 0.18 0.25  
Sea Level Pressure  
Sea Level Pressure 29.96 in    
Wind  
Wind Speed 10 mph (WSW)    
Max Wind Speed 17 mph    
Max Gust Speed 22 mph    
Visibility 10 miles    
Events      
T = Trace of Precipitation, MM = Missing Value Source: NWS Daily Summary

Daily Weather History Graph

Daily Weather History Graph

Search for Another Location

Airport or City:

Trip Planner

Search our weather history database for the weather conditions in past years. The results will help you decide how hot, cold, wet, or windy it might be!

Date:

Astronomy

Feb. 05, 2013 Rise Set
Actual Time 6:58 AM MST 5:14 PM MST
Civil Twilight 6:29 AM MST 5:43 PM MST
Nautical Twilight 5:56 AM MST 6:15 PM MST
Astronomical Twilight 5:24 AM MST 6:47 PM MST
Moon 2:43 AM MST (2/5) 12:32 PM MST (2/5)
Length of Visible Light 11h 13m
Length of Day
10h 15m
Waning Crescent, 26% of the Moon is Illuminated
Feb 5
Waning Crescent
Feb 10
New
Feb 17
First Quarter
Feb 25
Full
Mar 4
Last Quarter

Hourly Weather History & Observations

Time (MST) Temp. Windchill Dew Point Humidity Pressure Visibility Wind Dir Wind Speed Gust Speed Precip Events Conditions
12:53 AM 30.9 °F 21.7 °F 18.0 °F 59% 29.89 in 10.0 mi WNW 11.5 mph - N/A   Clear
1:53 AM 33.1 °F 24.4 °F 18.0 °F 54% 29.91 in 10.0 mi West 11.5 mph - N/A   Clear
2:53 AM 35.1 °F 25.2 °F 18.0 °F 50% 29.91 in 10.0 mi WNW 16.1 mph - N/A   Clear
3:53 AM 32.0 °F 20.8 °F 19.0 °F 59% 29.94 in 10.0 mi WNW 17.3 mph - N/A   Clear
4:53 AM 33.1 °F 22.6 °F 19.0 °F 56% 29.98 in 10.0 mi NW 16.1 mph - N/A   Clear
5:53 AM 33.1 °F 22.2 °F 19.0 °F 56% 30.02 in 10.0 mi NW 17.3 mph - N/A   Clear
6:53 AM 30.0 °F 20.0 °F 18.0 °F 61% 30.05 in 10.0 mi NW 12.7 mph - N/A   Clear
7:53 AM 32.0 °F 23.0 °F 19.0 °F 59% 30.08 in 10.0 mi NW 11.5 mph - N/A   Clear
8:53 AM 39.0 °F 32.8 °F 19.9 °F 46% 30.09 in 10.0 mi NW 9.2 mph - N/A   Clear
9:53 AM 46.0 °F 41.4 °F 21.9 °F 39% 30.06 in 10.0 mi NNW 9.2 mph - N/A   Clear
10:53 AM 48.0 °F - 21.0 °F 34% 30.06 in 10.0 mi North 6.9 mph - N/A   Clear
11:53 AM 51.1 °F - 21.0 °F 31% 30.01 in 10.0 mi Variable 5.8 mph - N/A   Clear
12:53 PM 52.0 °F - 21.0 °F 30% 29.98 in 10.0 mi South 8.1 mph - N/A   Clear
1:53 PM 52.0 °F - 19.9 °F 28% 29.94 in 10.0 mi Variable 4.6 mph - N/A   Mostly Cloudy
2:53 PM 52.0 °F - 19.9 °F 28% 29.91 in 10.0 mi South 12.7 mph - N/A   Clear
3:53 PM 48.9 °F - 19.9 °F 32% 29.92 in 10.0 mi SSW 11.5 mph - N/A   Clear
4:53 PM 43.0 °F 39.5 °F 19.9 °F 40% 29.94 in 10.0 mi SSW 5.8 mph - N/A   Scattered Clouds
5:53 PM 37.9 °F 35.5 °F 19.9 °F 48% 29.94 in 10.0 mi SSE 3.5 mph - N/A   Scattered Clouds
6:53 PM 37.0 °F 32.4 °F 19.9 °F 50% 29.95 in 10.0 mi South 5.8 mph - N/A   Mostly Cloudy
7:53 PM 37.9 °F 33.5 °F 21.9 °F 53% 29.94 in 10.0 mi SSE 5.8 mph - N/A   Clear
8:53 PM 39.9 °F 32.9 °F 21.9 °F 49% 29.88 in 10.0 mi South 11.5 mph - N/A   Clear
9:53 PM 41.0 °F 33.9 °F 19.9 °F 43% 29.85 in 10.0 mi South 12.7 mph - N/A   Scattered Clouds
10:53 PM 37.9 °F 30.5 °F 18.0 °F 45% 29.83 in 10.0 mi SSW 11.5 mph - N/A   Clear